Weather History for Blythe, CA

Change the Weather History Date:

Monday, April 1, 2013

  Actual Average Record
Temperature  
Mean Temperature 68 °F -  
Max Temperature 82 °F 77 °F 98 °F (2011)
Min Temperature 54 °F 51 °F 45 °F (1972)
Cooling Degree Days 3    
Growing Degree Days 18 (Base 50)    
Moisture  
Dew Point 35 °F    
Average Humidity 33    
Maximum Humidity 64    
Minimum Humidity 13    
Precipitation  
Precipitation 0.00 in - - ()
Sea Level Pressure  
Sea Level Pressure 29.91 in    
Wind  
Wind Speed 6 mph (WSW)    
Max Wind Speed 13 mph    
Max Gust Speed 18 mph    
Visibility 10 miles    
Events      
Averages and records for this station are not official NWS values.
T = Trace of Precipitation, MM = Missing Value Source: NWS Daily Summary

Daily Weather History Graph

Daily Weather History Graph

Search for Another Location

Airport:

Trip Planner

Search our weather history database for the weather conditions in past years. The results will help you decide how hot, cold, wet, or windy it might be!

Date:

Astronomy

Apr. 01, 2013 Rise Set
Actual Time 6:25 AM PDT 6:59 PM PDT
Civil Twilight 6:00 AM PDT 7:24 PM PDT
Nautical Twilight 5:31 AM PDT 7:54 PM PDT
Astronomical Twilight 5:01 AM PDT 8:24 PM PDT
Moon No Moon Rise 10:29 AM PDT (4/1)
Length of Visible Light 13h 23m
Length of Day
12h 33m
Waning Gibbous, 66% of the Moon is Illuminated
Apr 1
Waning Gibbous
Apr 2
Last Quarter
Apr 10
New
Apr 18
First Quarter
Apr 25
Full

Hourly Weather History & Observations

Time (PDT) Temp. Dew Point Humidity Pressure Visibility Wind Dir Wind Speed Gust Speed Precip Events Conditions
12:52 AM 64.0 °F 44.1 °F 48% 29.89 in 10.0 mi SSW 8.1 mph - N/A   Clear
1:52 AM 62.1 °F 44.1 °F 52% 29.90 in 10.0 mi South 8.1 mph - N/A   Clear
2:52 AM 62.1 °F 42.1 °F 48% 29.91 in 10.0 mi West 5.8 mph - N/A   Clear
3:52 AM 59.0 °F 41.0 °F 51% 29.92 in 10.0 mi Calm Calm - N/A   Clear
4:52 AM 55.0 °F 43.0 °F 64% 29.94 in 10.0 mi Calm Calm - N/A   Clear
5:52 AM 54.0 °F 41.0 °F 62% 29.95 in 10.0 mi North 4.6 mph - N/A   Clear
6:52 AM 54.0 °F 41.0 °F 62% 29.96 in 10.0 mi NW 4.6 mph - N/A   Clear
7:52 AM 60.1 °F 44.1 °F 55% 29.98 in 10.0 mi Calm Calm - N/A   Clear
8:52 AM 66.9 °F 42.1 °F 40% 29.99 in 10.0 mi West 4.6 mph - N/A   Clear
9:52 AM 70.0 °F 39.0 °F 32% 30.00 in 10.0 mi SSW 6.9 mph - N/A   Clear
10:52 AM 75.0 °F 30.0 °F 19% 30.00 in 10.0 mi North 8.1 mph - N/A   Clear
11:52 AM 73.9 °F 30.0 °F 20% 29.98 in 10.0 mi South 4.6 mph - N/A   Clear
2:52 PM 81.0 °F 27.0 °F 14% 29.91 in 10.0 mi WSW 11.5 mph 18.4 mph N/A   Clear
3:52 PM 81.0 °F 26.1 °F 13% 29.88 in 10.0 mi Calm Calm - N/A   Clear
4:52 PM 82.0 °F 27.0 °F 13% 29.86 in 10.0 mi WSW 12.7 mph - N/A   Clear
5:52 PM 82.0 °F 30.0 °F 15% 29.85 in 10.0 mi WSW 11.5 mph - N/A   Clear
6:52 PM 78.1 °F 34.0 °F 20% 29.85 in 10.0 mi South 8.1 mph - N/A   Clear
7:52 PM 75.0 °F 30.0 °F 19% 29.86 in 10.0 mi SW 6.9 mph - N/A   Clear
8:52 PM 73.9 °F 28.9 °F 19% 29.86 in 10.0 mi WSW 11.5 mph - N/A   Clear
9:52 PM 71.1 °F 30.0 °F 22% 29.87 in 10.0 mi WSW 9.2 mph - N/A   Clear
10:52 PM 70.0 °F 28.9 °F 22% 29.87 in 10.0 mi West 6.9 mph - N/A   Clear
11:52 PM 66.0 °F 28.0 °F 24% 29.89 in 10.0 mi Calm Calm - N/A   Clear